Nagpur Sonegaon, India

11:05 PM IST on April 24, 2018 (GMT +0530)
Nagpur

Weather History for VANP - March, 2013

Change the Weather History Date:

Tuesday, March 12, 2013

  Actual Average Record
Temperature  
Mean Temperature 84 °F -  
Max Temperature 105 °F 100 °F - ()
Min Temperature 63 °F 71 °F - ()
Cooling Degree Days 19    
Growing Degree Days 34 (Base 50)    
Moisture  
Dew Point 52 °F    
Average Humidity 32    
Maximum Humidity 59    
Minimum Humidity 12    
Precipitation  
Precipitation 0.00 in 0.02 in - ()
Sea Level Pressure  
Sea Level Pressure 29.85 in    
Wind  
Wind Speed 1 mph ()    
Max Wind Speed 7 mph    
Max Gust Speed -    
Visibility 2.5 miles    
Events      
T = Trace of Precipitation, MM = Missing Value Source: Averaged Metar Reports

Daily Weather History Graph

Daily Weather History Graph

Search for Another Location

Airport or City:

Astronomy

Mar. 12, 2013 Rise Set
Actual Time 6:25 AM IST 6:22 PM IST
Civil Twilight 6:03 AM IST 6:44 PM IST
Nautical Twilight 5:37 AM IST 7:10 PM IST
Astronomical Twilight 5:11 AM IST 7:35 PM IST
Moon 6:24 AM IST (3/12) 6:55 PM IST (3/12)
Length of Visible Light 12h 41m
Length of Day
11h 57m
New Moon, 0% of the Moon is Illuminated
Mar 12
New Moon
Mar 19
First Quarter
Mar 27
Full
Apr 3
Last Quarter
Apr 10
New

Hourly Weather History & Observations

Time (IST) Temp. Heat Index Dew Point Humidity Pressure Visibility Wind Dir Wind Speed Gust Speed Precip Events Conditions
12:10 AM 82.4 °F - 41.0 °F 23% 29.89 in 2.5 mi Calm Calm - N/A   Haze
1:10 AM 78.8 °F - 41.0 °F 26% 29.89 in 2.5 mi Calm Calm - N/A   Haze
2:10 AM 77.0 °F - 42.8 °F 29% 29.86 in 2.5 mi Calm Calm - N/A   Haze
2:30 AM 68 °F - 52 °F 45% 29.83 in 2 mi Calm Calm - -   Haze
3:10 AM 73.4 °F - 46.4 °F 38% 29.83 in 2.5 mi Calm Calm - N/A   Haze
4:10 AM 73.4 °F - 46.4 °F 38% 29.83 in 2.5 mi Calm Calm - N/A   Haze
5:30 AM 66 °F - 55 °F 59% 29.84 in 2 mi Calm Calm - -   Haze
6:10 AM 69.8 °F - 48.2 °F 46% 29.86 in 2.5 mi Calm Calm - N/A   Haze
7:10 AM 69.8 °F - 51.8 °F 53% 29.89 in 1.6 mi Calm Calm - N/A   Haze
8:10 AM 77.0 °F - 51.8 °F 41% 29.92 in 1.2 mi Calm Calm - N/A   Haze
8:30 AM 78 °F - 56 °F 37% 29.89 in 1 mi NE 2.3 mph - -   Haze
10:10 AM 87.8 °F 86.1 °F 55.4 °F 33% 29.95 in 2.5 mi SSE 3.5 mph - N/A   Haze
11:10 AM 95.0 °F 93.0 °F 55.4 °F 26% 29.92 in 3.7 mi SSW 3.5 mph - N/A   Unknown
11:30 AM 95 °F - 58 °F 19% 29.83 in 2 mi South 3.5 mph - -  
12:10 PM 98.6 °F 97.6 °F 57.2 °F 25% 29.89 in 3.7 mi South 3.5 mph - N/A   Unknown
1:10 PM 102.2 °F 101.4 °F 57.2 °F 22% 29.86 in 3.7 mi South 3.5 mph - N/A   Unknown
2:10 PM 105.8 °F - 51.8 °F 17% 29.83 in 3.7 mi West 3.5 mph - N/A   Partly Cloudy
2:30 PM 101 °F - 53 °F 12% 29.73 in 2 mi South 4.6 mph - -   Scattered Clouds
3:10 PM 105.8 °F - 50.0 °F 15% 29.80 in 3.7 mi SW 6.9 mph - N/A   Scattered Clouds
5:10 PM 102.2 °F - 50.0 °F 17% 29.77 in 3.1 mi South 4.6 mph - N/A   Haze
7:10 PM 91.4 °F 89.1 °F 53.6 °F 28% 29.80 in 2.5 mi Calm Calm - N/A   Haze
8:10 PM 89.6 °F 87.7 °F 55.4 °F 31% 29.83 in 2.5 mi ESE 3.5 mph - N/A   Haze
8:30 PM 82 °F - 60 °F 37% 29.80 in 2 mi ESE 3.5 mph - -   Haze
9:10 PM 87.8 °F 86.1 °F 55.4 °F 33% 29.86 in 2.5 mi East 3.5 mph - N/A   Haze
10:10 PM 86.0 °F 84.2 °F 53.6 °F 33% 29.89 in 2.5 mi Calm Calm - N/A   Haze
11:10 PM 84.2 °F 83.0 °F 55.4 °F 37% 29.86 in 2.5 mi Calm Calm - N/A   Haze
11:30 PM 76 °F - 60 °F 47% 29.85 in 2 mi WNW 3.5 mph - -   Haze